グリグ-シェレルップ彗星

26P/Grigg-Skjellerup (2023)

English version
Home page
Updated on November 24, 2021

---------------------------------------------------------------------

・ プロフィール

・ 軌道要素

Epoch 2022 Jan. 21.0 TT = JDT 2459600.5                                         
T 2023 Dec. 25.58929 TT                                 Rudenko                 
q   1.0843664            (2000.0)            P               Q                  
n   0.18830304     Peri.    2.16724     -0.83338936     +0.51538422             
a   3.0146102      Node   211.53911     -0.51264701     -0.85579892             
e   0.6402963      Incl.   22.43226     -0.20653138     +0.04457934             
P   5.23                                                                        
From 674 observations 1966 Dec. 19-2021 Nov. 11, mean residual 0".8.            
     Nongravitational parameters A1 = +0.01, A2 = -0.0010.                      

・ 星図

・ 光度変化

        H = 16.5  G = 0.15                        [   ,-80]  (              〜2023年10月 6日)
        m1 = 16.2 + 5 logΔ + 10.0 log r(t - 20)  [-80,-25]  (2023年10月 6日〜2023年11月30日)
        m1 = 8.0 + 5 logΔ + 100 log r(t - 20)    [-25, 65]  (2023年11月30日〜2024年 2月28日)
        m1 = 16.2 + 5 logΔ + 10.0 log r(t - 20)  [ 65,180]  (2024年 2月28日〜2024年 6月22日)
        H = 16.5  G = 0.15                        [180,   ]  (2024年 6月22日〜              )

---------------------------------------------------------------------

軌道要素はM.P.E.C. 2021-W31に掲載されたものです。
星図はステラナビゲータ Ver.10 (アストロアーツ) で作成したものです。
光度グラフはComet for Windowsで作成したものです。

---------------------------------------------------------------------

Copyright(C) Seiichi Yoshida (comet@aerith.net). All rights reserved.